FW9099 Weather Reports


time (UTC)temp
F
wind
direction
speed
knots
gust
knots
rain 1hr
in
rain 24hr
in
rain mn
in
humidity
%
barometer
mb
20260507093050 48 257 0.0 2.6 0.10 0.43 0.22 71 1007.9
20260507091538 48 251 0.0 1.7 0.13 0.42 0.21 71 1008.0
20260507090043 48 247 0.9 4.3 0.12 0.39 0.18 71 1007.9
20260507084514 48 258 0.0 1.7 0.12 0.37 0.16 71 1008.0
20260507083050 48 242 0.0 1.7 0.08 0.33 0.12 71 1008.1
20260507081526 48 261 0.0 0.9 0.06 0.28 0.08 70 1008.3
20260507080040 49 249 0.0 0.9 0.04 0.27 0.06 69 1008.0
20260507074516 49 219 0.0 2.6 0.02 0.25 0.04 69 1008.4
20260507073054 50 219 0.0 4.3 0.02 0.25 0.04 67 1008.0
20260507071535 50 257 0.0 1.7 0.00 0.23 0.02 68 1008.0
20260507070045 50 254 0.0 0.9 0.00 0.23 0.02 68 1007.0
20260507064544 51 216 0.0 0.9 0.00 0.23 0.02 67 1007.0
20260507063004 51 273 0.0 0.9 0.00 0.23 0.02 66 1007.1
20260507061542 52 297 0.0 2.6 0.00 0.23 0.02 65 1007.4
20260507060109 53 314 0.0 0.9 0.00 0.23 0.02 69 1007.3
20260507054532 53 102 0.0 2.6 0.00 0.23 0.02 69 1007.4
20260507053008 53 212 0.9 4.3 0.00 0.23 0.02 69 1007.6
20260507051601 54 265 0.0 2.6 0.00 0.23 0.02 70 1007.8
20260507050054 54 245 0.0 4.3 0.02 0.23 0.02 69 1007.5
20260507044534 55 248 0.0 6.1 0.04 0.23 0.02 70 1007.3
20260507043010 56 238 0.9 7.0 0.08 0.23 0.02 70 1007.2
20260507041550 56 232 0.0 1.7 0.08 0.23 0.02 70 1007.2
20260507040058 56 271 0.0 4.3 0.06 0.21 0.21 70 1007.1
20260507034536 57 268 0.0 2.6 0.03 0.18 0.18 70 1007.3
20260507033012 57 267 0.9 4.3 0.00 0.15 0.15 70 1007.4
20260507031550 58 244 0.0 3.5 0.00 0.15 0.15 71 1007.3
20260507030058 57 276 0.0 3.5 0.00 0.15 0.15 71 1007.0
20260507024538 57 248 1.7 6.1 0.00 0.15 0.15 71 1006.9
20260507023013 57 233 0.0 4.3 0.00 0.15 0.15 71 1006.8
20260507021552 57 246 0.0 3.5 0.00 0.15 0.15 71 1006.5
20260507020119 57 248 0.0 2.6 0.00 0.15 0.15 71 1006.8
20260507020002 57 248 0.0 2.6 0.00 0.15 0.15 71 1006.8
20260507014545 57 94 0.0 4.3 0.00 0.15 0.15 71 1006.8
20260507013016 57 233 0.0 3.5 0.00 0.15 0.15 71 1006.7
20260507011554 57 162 0.0 1.7 0.00 0.15 0.15 71 1006.8
20260507010111 57 219 0.0 2.6 0.00 0.15 0.15 71 1007.0
20260507010004 57 242 0.0 2.6 0.00 0.15 0.15 71 1007.0
20260507004539 57 267 0.0 1.7 0.00 0.15 0.15 71 1007.0
20260507003023 57 223 0.0 2.6 0.00 0.15 0.15 71 1007.1
20260507001557 57 246 0.0 1.7 0.01 0.15 0.15 70 1007.1
20260507000004 57 221 0.0 1.7 0.02 0.15 0.15 70 1006.9
20260506234541 57 169 0.0 4.3 0.03 0.15 0.15 70 1006.7
20260506233017 57 207 0.0 1.7 0.03 0.15 0.15 69 1006.6
20260506231608 57 257 0.0 0.9 0.02 0.14 0.14 69 1006.7
20260506230017 57 231 0.0 3.5 0.01 0.13 0.13 68 1006.5
20260506224543 57 199 0.0 1.7 0.00 0.12 0.12 67 1006.7
20260506223019 58 232 0.0 3.5 0.01 0.12 0.12 67 1006.7
20260506221621 58 219 0.0 1.7 0.01 0.12 0.12 67 1006.7
20260506220007 58 219 0.0 2.6 0.02 0.12 0.12 67 1006.8
20260506214548 58 253 0.0 2.6 0.03 0.12 0.12 67 1006.8
20260506213021 59 211 0.0 4.3 0.03 0.11 0.11 67 1006.9
20260506211600 58 223 0.9 2.6 0.04 0.11 0.11 65 1007.2
20260506211502 58 212 0.0 2.6 0.04 0.11 0.11 65 1007.1
20260506210008 58 214 0.0 3.5 0.03 0.10 0.10 65 1007.3
20260506204545 59 143 0.9 5.2 0.03 0.09 0.09 65 1007.2
20260506203021 59 203 0.0 2.6 0.02 0.08 0.08 65 1007.3
20260506201557 59 243 0.9 11.3 0.02 0.07 0.07 67 1007.5
20260506200007 58 236 0.0 4.3 0.03 0.07 0.07 68 1007.6
20260506194545 59 252 0.9 4.3 0.04 0.06 0.06 67 1007.6
20260506193027 59 193 0.0 1.7 0.05 0.06 0.06 68 1007.9
20260506191619 59 214 0.9 2.6 0.05 0.05 0.05 72 1007.8
20260506191501 59 207 0.9 2.6 0.05 0.05 0.05 72 1007.8
20260506190015 60 207 0.9 2.6 0.04 0.04 0.04 74 1008.0
20260506184559 61 255 0.9 3.5 0.02 0.02 0.02 78 1008.1
20260506183023 62 224 0.0 4.3 0.01 0.01 0.01 78 1008.2
20260506181503 64 210 0.0 2.6 0.00 0.00 0.00 75 1008.3
20260506180019 65 237 0.0 2.6 0.00 0.00 0.00 71 1008.4
20260506174551 67 216 0.9 5.2 0.00 0.00 0.00 68 1008.4
20260506173027 69 212 0.9 5.2 0.00 0.00 0.00 64 1008.4
20260506171510 70 209 2.6 5.2 0.00 0.00 0.00 61 1008.6
20260506170013 71 193 1.7 4.3 0.00 0.00 0.00 61 1008.4
20260506164551 71 223 1.7 5.2 0.00 0.00 0.00 61 1008.4
20260506163035 70 181 0.0 4.3 0.00 0.00 0.00 62 1008.8
20260506161507 71 224 1.7 6.1 0.00 0.00 0.00 61 1009.0
20260506160021 70 211 1.7 4.3 0.00 0.00 0.00 61 1009.1
20260506154553 72 257 1.7 4.3 0.00 0.00 0.00 59 1009.1
20260506153032 71 174 0.9 5.2 0.00 0.00 0.00 61 1009.4
20260506151509 71 204 0.9 4.3 0.00 0.00 0.00 61 1009.6
20260506150017 70 245 0.0 3.5 0.00 0.00 0.00 64 1009.9
20260506144602 68 212 0.9 3.5 0.00 0.00 0.00 65 1009.8
20260506143031 68 261 0.0 7.0 0.00 0.00 0.00 65 1009.9
20260506141510 68 217 0.9 3.5 0.00 0.00 0.00 65 1009.8
20260506140026 68 208 0.9 4.3 0.00 0.00 0.00 65 1009.7
20260506134558 67 207 0.9 7.0 0.00 0.00 0.00 67 1009.6
20260506134502 67 220 0.9 7.0 0.00 0.00 0.00 67 1009.8
20260506133031 66 207 0.9 3.5 0.00 0.00 0.00 69 1009.7
20260506131507 64 217 0.0 3.5 0.00 0.00 0.00 70 1010.3
20260506130013 63 229 0.0 2.6 0.00 0.00 0.00 71 1010.5
20260506124551 62 212 0.0 4.3 0.00 0.00 0.00 72 1010.4
20260506123027 62 216 0.9 3.5 0.00 0.00 0.00 72 1010.4
20260506121506 62 222 0.9 3.5 0.00 0.00 0.00 72 1010.5
20260506120018 61 236 0.0 4.3 0.00 0.00 0.00 73 1010.5
20260506114555 60 240 0.0 3.5 0.00 0.00 0.00 75 1010.6
20260506113030 59 220 0.0 4.3 0.00 0.00 0.00 76 1010.7
20260506111508 59 255 0.0 3.5 0.00 0.00 0.00 75 1010.8
20260506110021 58 222 0.0 2.6 0.00 0.00 0.00 76 1010.7
20260506104601 58 196 0.0 1.7 0.00 0.00 0.00 77 1010.6
20260506103033 57 240 0.9 2.6 0.00 0.00 0.00 78 1010.6
20260506101513 57 248 0.0 2.6 0.00 0.00 0.00 78 1010.7
20260506100024 57 215 0.0 2.6 0.00 0.00 0.00 78 1010.5
20260506094556 57 237 0.0 1.7 0.00 0.00 0.00 78 1010.4